SCP
0 0 0 0 0 0 0 0 0 0 0 0 0 0 0 0 0 0 0 0 0 0 0 0 0 0 0 0 0 0 0 0 0 0 0 0 0 0 0 0 0 0 0 0 0 0 0 0 0
0 0 0 0 0 0 0 0 0 0 0 0 0 0 0 0 0 0 0 0 0 0 0 0 0 0 0 0 0 0 0 0 0 0 0 0 0 0 0 0 0 0 0 0 0 0 0 0 0
0 0 0 0 0 0 0 0 0 0 0 0 0 0 0 0 0 0 0 0 0 0 0 0 0 0 0 0 0 0 0 0 0 0 0 0 0 0 0 0 0 0 0 0 0 0 0 0 0
0 0 0 0 0 0 -0 0 0 0 0 0 0 0 0 0 0 0 0 0 0 0 0 0 0 0 0 0 0 0 0 0 0 0 0 0 0 0 0 0 0 0 0 0 0 0 0 0 0
0 0 0 0 0 -0 -0 0 0 0 0 0 0 0 0 0 0 0 0 0 0 0 0 0 0 0 0 0 0 0 0 0 0 0 0 0 0 0 0 0 0 0 0 0 0 0 0 0 0
0 0 0 0 0 0 0 0 0 0 0 0 0 0 0 0 0 0 0 0 0 0 0 0 0 0 0 0 0 0 0 0 0 0 0 0 0 0 0 0 0 0 0 0 0 0 0 0 0
0 0 0 0 0 0 0 0 0 0 0 0 0 0 0 0 0 0 0 0 0 0 0 0 0 0 0 0 0 0 0 0 0 0 0 0 0 0 0 0 0 0 0 0 0 0 0 0 0
0 0 0 0 0 0 0 0 0 0 0 0 0 0 0 0 0 0 0 0 0 0 0 0 0 0 0 0 0 0 0 0 0 0 0 0 0 0 0 0 0 0 0 0 0 0 0 0 0
0 0 0 0 0 0 0 0 0 0 0 0 0 0 0 0 0 0 0 0 0 0 0 0 0 0 0 0 0 0 0 0 0 0 0 0 0 0 0 0 0 0 0 0 0 0 0 0 0
0 0 0 0 0 0 0 0 0 0 0 0 0 0 0 0 0 0 0 0 0 0 0 0 0 0 0 0 0 0 0 0 0 0 0 0 0 0 0 0 0 0 0 0 0 0 0 0 0
0 0 0 0 0 0 0 0 0 0 0 0 0 0 0 0 0 0 0 0 0 0 0 0 0 0 0 0 0 0 0 0 0 0 0 0 0 0 0 0 0 0 0 0 0 0 0 0 0
0 0 0 0 0 0 0 0 0 0 0 0 0 0 0 0 0 0 0 0 0 0 0 0 0 0 0 0 0 0 0 0 0 0 0 0 0 0 0 0 0 0 0 0 0 0 0 0 0
0 0 0 0 0 0 0 0 0 0 0 0 0 0 0 -0 0 0 0 0 0 0 0 0 0 0 0 0 0 0 0 0 0 0 0 0 0 -0 0 0 0 0 0 0 0 0 0 0 0
0 0 0 0 0 0 0 0 0 0 0 0 0 0 -0 -0 -0 0 0 0 0 0 0 0 0 0 0 0 0 0 0 0 0 0 0 0 0 0 0 0 0 0 0 0 0 0 0 0 0
0 0 0 0 0 0 0 0 0 0 0 0 0 0 -0 -0 -0 0 0 0 0 0 0 0 0 0 0 0 0 0 0 0 0 0 0 0 0 0 0 0 0 0 0 0 0 0 0 0 0
0 0 0 0 0 0 0 0 0 0 0 0 0 0 -0 -0 -0 -0 0 0 0 0 0 0 0 0 0 0 0 0 -0 -0 -0 -0 0 0 0 0 0 0 0 0 0 -0 0 0 0 0 0
0 0 0 0 0 0 0 0 0 0 0 0 0 0 0 -0 -0 -0 0 0 0 0 0 0 0 0 0 0 0 0 0 0 -0 0 0 0 0 0 0 0 0 0 -0 -0 0 0 0 0 0
0 0 0 0 0 0 0 0 0 0 0 0 0 0 0 0 -0 -0 0 0 0 0 0 0 0 0 0 0 0 0 0 0 0 0 0 0 0 0 0 0 0 0 -0 -0 0 0 0 0 0
0 0 0 0 0 0 0 0 0 0 0 0 0 0 0 0 0 -0 0 0 0 0 0 0 0 0 0 0 0 0 0 0 0 0 0 0 0 0 0 0 0 0 0 -0 0 0 0 0 0
0 0 0 0 0 0 0 0 0 0 0 0 0 0 0 0 0 -0 -0 -0 0 0 0 0 0 0 0 0 0 0 0 0 0 0 0 0 0 0 0 0 0 0 0 0 0 0 0 0 0
0 0 0 0 0 0 0 0 0 0 0 0 0 0 0 0 -0 -0 -0 -0 0 0 0 0 0 0 0 0 0 0 0 0 0 0 0 0 0 0 0 0 0 0 0 0 0 0 0 0 0
0 0 0 0 0 0 0 0 0 0 0 0 0 0 0 0 -0 -0 -0 -0 -0 0 0 0 0 0 0 0 0 0 0 0 0 0 0 0 0 0 0 0 0 0 0 0 0 0 0 0 0
0 0 0 0 0 0 0 0 0 0 0 0 0 0 0 0 -0 -0 -0 -0 -0 0 0 0 0 0 0 0 0 0 0 0 0 0 0 0 0 0 0 0 0 0 0 0 0 0 0 0 0
0 0 0 0 0 0 0 0 0 0 0 0 0 0 0 0 0 -0 -0 -0 -0 0 0 0 0 0 0 0 0 0 0 0 0 0 0 0 0 0 0 0 0 0 0 0 0 0 0 0 0
0 0 0 0 0 0 0 0 0 0 0 0 0 0 0 0 0 0 0 -0 -0 0 0 0 0 0 0 0 0 0 0 0 0 0 0 0 0 0 0 0 0 0 0 0 0 0 0 0 0
0 0 0 0 0 0 0 0 0 0 0 0 0 0 0 0 0 0 0 0 0 0 0 0 0 0 0 0 0 0 0 0 0 0 0 0 0 0 0 0 0 0 0 0 0 0 0 0 0
0 0 0 0 0 0 0 0 0 0 0 0 0 0 0 0 0 0 0 -0 0 0 0 0 0 0 0 0 0 0 0 0 0 0 0 0 0 0 0 0 0 0 0 0 0 0 0 0 0
0 0 0 0 0 0 0 0 0 0 0 0 0 0 0 0 0 0 0 -0 0 0 0 0 0 0 0 0 0 0 0 0 0 0 0 0 0 0 0 0 0 0 0 0 0 0 0 0 0
0 0 0 0 0 0 0 0 0 0 0 0 0 0 0 0 0 -0 -0 -0 0 0 0 0 0 0 0 0 0 0 0 0 0 0 0 0 0 0 0 0 0 0 0 0 0 0 0 0 0
0 0 0 0 0 0 -0 -0 0 0 0 0 0 0 0 0 0 0 -0 -0 0 0 0 0 0 0 0 0 0 0 0 0 0 0 0 0 0 0 0 0 0 0 0 0 0 0 0 0 0
Wind_Speed
11 5 1 4 6 5 1 2 1 0 0 1 2 2 3 3 2 2 1 1 2 1 1 0 3 6 7 8 8 8 8 8 8 9 9 9 9 9 10 10 10 10 10 11 11 11 11 11 11
4 3 4 5 5 1 2 2 1 1 1 2 3 3 3 2 2 1 1 1 2 2 1 1 4 6 7 7 7 8 8 8 8 8 9 8 8 8 9 9 10 10 10 10 11 11 11 11 11
3 3 5 5 3 4 3 1 1 1 2 2 3 3 2 1 1 0 1 1 2 2 2 1 5 6 7 7 7 7 7 8 8 8 8 8 8 9 9 9 9 9 9 10 10 10 11 11 11
3 5 6 5 2 2 1 1 1 1 2 3 3 2 1 2 1 1 1 2 3 2 2 2 5 6 6 7 6 6 7 7 7 7 7 7 8 8 8 8 8 8 9 9 10 10 10 10 11
4 5 5 2 1 1 0 1 1 1 1 2 2 2 1 2 2 2 2 3 3 2 2 2 5 5 6 6 6 6 6 7 7 7 7 8 8 7 7 7 8 8 9 9 9 9 10 10 10
5 5 4 2 2 1 1 1 1 2 1 1 2 2 0 1 2 2 2 3 3 3 3 3 4 5 5 5 5 5 6 6 6 6 7 8 8 8 8 7 7 8 8 9 9 9 9 10 10
5 4 3 3 2 1 1 1 1 1 1 1 1 2 0 1 1 1 3 3 3 3 3 3 2 3 4 5 5 5 5 6 6 6 7 7 7 8 8 8 7 7 8 8 9 9 9 9 9
4 5 3 2 3 2 0 1 1 1 1 1 1 2 2 2 0 2 3 3 3 3 3 3 3 3 2 2 4 5 5 6 6 7 7 8 8 7 8 7 7 7 7 7 8 8 8 8 9
3 5 2 3 4 2 0 1 1 1 2 1 1 0 1 3 3 3 3 2 2 2 2 2 2 2 2 2 3 3 4 5 6 5 7 6 4 4 4 7 7 7 7 7 7 7 8 7 8
5 3 3 1 1 1 0 1 1 1 1 0 1 2 1 4 4 3 3 2 2 1 1 1 1 1 1 1 2 1 2 2 2 3 3 2 3 3 4 6 8 8 7 6 7 7 6 5 3
4 3 1 1 1 1 0 0 0 2 1 3 3 2 2 3 3 4 4 3 3 2 1 0 1 1 1 1 1 1 1 1 1 2 2 2 2 2 3 2 3 4 5 4 4 4 3 3 2
4 2 1 1 2 1 0 0 0 1 3 2 3 4 4 4 5 5 5 3 2 2 2 2 1 1 1 1 1 1 1 1 1 1 2 2 1 2 1 2 2 2 2 3 2 2 2 3 3
3 2 2 2 3 2 2 1 0 3 3 1 1 3 3 3 4 3 3 3 3 3 3 2 2 2 1 1 1 1 1 1 0 0 1 2 2 1 1 1 1 2 2 2 2 2 2 2 2
2 2 2 3 3 2 1 1 1 5 1 1 2 2 3 3 3 2 2 2 3 3 4 3 3 2 2 1 1 1 1 1 0 0 1 2 2 1 1 1 1 1 1 1 1 2 1 1 1
3 3 3 3 3 2 1 3 3 3 0 0 2 2 2 3 3 4 4 3 2 2 2 3 3 2 2 2 2 1 1 1 1 1 1 1 1 2 2 1 0 0 1 1 1 2 2 1 1
3 3 3 3 3 3 1 4 4 1 1 2 3 3 3 4 4 3 3 2 2 2 2 3 3 3 3 2 2 1 1 1 1 1 1 1 1 1 1 1 1 0 1 1 1 1 2 2 1
5 2 1 4 2 2 1 5 4 1 1 4 4 3 3 4 4 3 2 3 2 2 2 3 3 3 3 2 1 1 1 1 1 0 0 0 1 1 1 1 1 1 1 0 0 1 1 1 2
0 0 1 3 3 2 2 6 8 4 2 4 4 3 3 4 5 3 2 2 2 2 2 2 2 2 2 1 0 0 0 1 1 1 1 1 1 1 1 1 1 1 1 1 0 0 1 0 1
2 2 1 3 2 2 3 7 9 6 3 3 3 3 3 5 4 3 2 2 1 2 2 2 2 2 1 1 1 1 1 1 1 1 1 1 1 1 1 1 1 2 2 2 1 0 0 0 1
2 2 2 3 2 2 4 7 6 4 3 3 4 4 4 4 4 3 2 2 2 3 3 3 3 3 2 2 1 1 1 0 1 1 0 0 0 1 1 2 2 2 2 2 2 1 0 0 0
2 1 1 3 4 2 4 7 4 2 1 2 2 3 3 4 5 4 3 3 3 3 4 3 3 2 2 1 1 1 1 1 1 1 1 1 0 1 1 2 2 2 2 2 3 2 2 1 1
1 0 1 1 2 3 3 4 6 3 4 3 4 3 4 4 4 4 4 4 4 5 3 3 2 2 2 2 2 2 2 2 2 1 1 1 1 1 1 1 1 1 1 2 2 2 2 2 1
1 0 0 0 1 2 2 1 9 3 4 5 4 4 5 4 4 5 5 5 5 4 3 2 2 2 2 2 3 3 2 2 1 0 1 1 1 1 1 1 1 2 1 2 2 1 2 2 2
0 1 2 3 3 2 2 2 8 4 5 4 4 4 4 4 4 4 4 3 3 3 2 1 1 2 1 1 2 3 3 2 1 1 1 1 1 1 1 1 1 1 2 2 2 2 1 2 2
3 4 5 6 5 4 1 3 11 7 5 4 5 5 5 4 3 4 4 4 4 3 2 2 2 2 2 1 2 3 3 3 3 3 2 2 1 1 2 1 1 1 1 2 1 1 1 2 2
1 2 4 2 3 6 2 6 9 5 4 4 4 5 4 4 4 4 4 4 4 4 3 2 3 3 2 2 2 2 2 2 2 2 2 2 2 2 2 1 1 2 2 1 1 1 2 1 2
1 1 1 4 1 3 6 8 10 3 4 4 4 4 5 5 4 4 4 3 3 3 3 3 3 3 2 2 1 1 1 1 2 1 1 1 1 1 1 1 1 1 1 1 1 1 2 2 2
1 3 3 3 1 4 7 6 6 5 4 4 5 5 5 4 4 4 3 3 3 2 2 1 2 2 2 1 1 1 1 1 1 0 1 1 1 1 1 1 1 1 1 1 1 1 1 1 2
1 2 2 3 3 3 4 9 6 6 4 5 6 5 4 4 4 4 3 2 2 2 1 1 1 1 0 1 0 0 1 1 1 1 2 1 1 1 1 1 1 1 1 1 1 2 1 2 2
2 3 4 3 3 3 3 11 4 5 4 4 6 5 4 4 4 4 3 2 2 2 2 1 1 1 1 1 1 1 1 0 1 1 2 1 1 1 1 1 1 1 1 1 1 2 2 3 3
Wind_Direction
335 333 39 59 57 57 173 241 175 124 49 53 62 90 123 130 150 176 356 55 68 106 152 128 93 98 95 91 87 84 82 81 80 79 79 78 78 76 74 70 68 66 66 65 64 63 62 63 62
326 344 51 59 91 129 250 236 192 245 143 94 54 60 69 59 28 52 23 354 64 88 81 87 94 99 96 94 91 86 83 81 79 77 78 79 79 78 75 73 69 68 66 63 61 60 62 63 61
332 41 73 75 112 176 205 215 183 32 60 72 71 53 71 28 6 342 331 45 81 73 50 43 92 102 101 98 94 91 88 84 80 77 77 75 75 76 76 73 70 67 64 61 61 61 62 62 60
52 47 54 77 166 216 214 317 138 95 47 44 93 73 51 15 341 326 26 92 92 68 55 63 89 103 106 102 98 95 91 87 84 81 78 76 74 74 75 73 70 67 64 63 62 60 60 61 60
57 74 68 62 224 267 310 340 104 91 74 32 84 105 33 10 28 74 86 99 101 76 61 69 81 92 99 101 101 97 94 88 83 80 78 74 69 69 71 73 72 69 65 64 62 61 60 60 60
59 70 103 191 223 271 344 352 74 64 52 53 91 113 147 36 50 76 85 91 92 86 65 68 72 82 88 90 91 94 97 89 82 79 77 73 68 64 63 66 70 70 67 64 63 61 60 59 58
101 100 147 175 183 242 269 26 109 121 118 237 167 129 252 355 20 75 79 81 75 71 66 56 57 68 76 83 84 83 84 81 78 77 71 66 63 61 58 58 60 65 67 66 64 61 60 61 59
110 105 114 165 182 224 251 48 96 127 181 27 95 144 225 235 123 94 88 81 80 68 63 56 51 54 58 61 73 76 75 76 75 70 64 59 56 53 51 49 53 56 62 67 66 62 60 59 58
83 86 164 199 192 217 143 88 17 39 100 55 27 317 232 135 124 109 98 85 90 75 60 58 55 56 50 61 64 70 75 76 76 68 65 59 46 44 42 42 47 52 55 62 64 63 62 61 55
70 125 197 208 188 182 250 146 170 78 55 353 332 354 96 133 142 150 160 173 160 134 93 59 64 61 57 62 59 56 77 78 76 76 68 57 49 46 51 44 45 46 48 52 56 58 55 53 45
71 133 148 31 19 125 86 352 134 137 234 223 225 236 171 167 178 189 193 194 193 185 177 147 102 67 73 84 91 63 76 86 82 83 76 71 60 50 45 44 38 37 39 36 38 39 37 37 38
82 52 78 33 15 51 113 146 60 192 235 251 215 179 170 193 204 204 203 208 200 193 201 192 160 137 104 102 126 134 124 111 113 111 98 92 81 62 48 48 37 36 35 31 29 34 37 41 41
77 80 37 48 45 55 70 65 237 271 281 308 139 146 179 210 229 222 218 220 209 205 213 209 188 191 190 156 181 156 157 160 176 131 137 128 124 114 86 62 52 44 44 42 28 27 36 36 35
97 91 40 18 25 23 49 325 327 276 318 59 138 187 202 214 217 221 222 227 227 227 220 213 205 204 196 197 201 198 194 177 169 181 198 159 150 148 139 101 66 50 51 45 45 29 18 24 33
98 71 32 21 11 353 354 324 257 265 69 323 265 251 248 238 220 225 228 233 236 254 248 219 216 213 206 212 214 203 196 189 190 220 202 186 174 168 167 156 138 43 69 70 66 47 32 26 31
62 56 18 342 12 346 41 278 279 286 153 264 270 266 261 256 238 238 239 242 248 261 274 247 223 216 219 221 224 213 203 199 210 214 199 196 202 187 177 172 183 177 114 93 82 61 38 9 339
40 47 333 319 1 3 56 264 278 291 250 264 262 258 256 269 276 263 254 239 234 232 246 261 240 219 223 222 223 210 198 224 228 196 178 202 178 179 200 201 201 170 143 127 115 41 32 4 344
218 13 305 291 323 355 283 273 286 286 255 260 266 265 265 267 269 272 267 254 236 232 232 251 256 239 218 194 141 36 25 313 295 242 226 220 219 188 182 205 197 181 157 158 118 28 13 285 327
133 136 272 285 329 337 275 282 287 287 273 267 267 264 270 274 286 288 276 279 255 238 241 255 257 249 201 192 197 210 250 274 296 283 262 225 223 206 189 184 192 186 190 197 181 154 23 332 8
98 71 328 313 346 338 309 293 284 264 244 235 242 253 264 285 304 302 302 289 258 251 246 246 246 235 216 209 204 209 207 259 268 290 334 290 227 225 195 187 190 194 192 197 192 171 171 256 69
49 151 266 304 331 0 338 316 307 299 292 289 260 253 265 260 275 291 291 277 270 264 251 245 243 237 228 185 107 68 35 349 316 309 310 320 272 214 202 192 190 194 189 207 210 197 191 217 243
312 265 211 319 8 333 27 311 298 306 307 282 269 268 266 269 271 275 275 276 265 263 262 254 236 234 227 177 170 181 205 234 245 248 268 311 299 247 225 200 176 189 199 207 219 203 205 197 228
218 323 111 62 108 343 6 244 287 327 299 278 265 266 265 264 266 272 267 261 266 266 257 251 232 238 229 193 188 190 217 234 243 261 289 294 287 257 237 218 190 192 201 213 207 204 205 208 212
184 45 51 50 64 334 276 204 281 257 243 276 282 281 278 278 277 278 282 282 283 280 270 257 234 253 245 208 194 191 209 218 226 253 254 271 268 259 265 242 202 202 202 209 207 204 200 218 216
41 64 23 5 7 267 275 238 255 255 247 251 277 285 287 286 282 287 295 292 289 284 270 250 236 255 257 232 218 213 216 212 219 230 233 243 248 251 265 256 227 209 217 220 203 202 217 213 216
23 110 138 202 258 291 302 248 257 258 272 273 275 279 290 288 281 280 281 278 279 275 265 242 237 248 249 240 241 233 223 218 227 228 226 237 238 240 237 230 226 215 210 218 198 214 230 228 231
104 109 146 128 65 298 282 285 297 274 290 293 293 293 288 284 284 283 291 293 290 281 265 243 235 243 245 243 247 238 226 221 223 224 218 231 236 243 230 219 224 224 214 214 200 223 238 240 241
82 144 100 111 118 293 296 279 259 280 280 291 289 281 283 291 297 294 292 298 301 288 287 287 245 235 239 232 224 230 222 233 229 205 241 239 241 239 234 235 238 245 231 216 217 244 244 238 252
98 112 114 116 155 177 286 277 229 230 248 264 272 273 279 290 289 290 292 294 301 312 319 309 295 273 275 253 230 230 225 220 203 212 240 239 243 243 245 243 240 258 266 248 239 256 265 258 268
198 186 161 162 229 203 230 270 259 234 256 266 277 285 292 288 284 283 286 296 305 307 307 295 282 260 248 207 183 223 237 212 211 234 253 249 251 257 252 253 255 257 258 255 250 262 272 266 266